Date String (YYYY-MM-DD hh:mm:ss) UTC,Instrument flags,absolute air pressure of the measurement (hPa),sample flow rate (lpm),inlet stack bypass flow (lpm),air temperature of the measurement (°C),ambient temperature measured by the external sensor (°C),aerosol sample conditioner tube jacket temperature (°C),OPC LED temperature (°C),internal box temperature (°C),relative humidity of the measurement (%),span deviation,mass concentration of particles derived from Lorenz-Mie calculation of OPC scattering (μg/m³),mass concentration of particles derived from Lorenz-Mie calculation of OPC scattering (μg/m³),mass concentration of particles derived from Lorenz-Mie calculation of OPC scattering (μg/m³)
DateTimeUTC,F1_M11,P_M11,Q1_M11,Q2_M11,T1_M11,T2_M11,T3_M11,T4_M11,T5_M11,U1_M11,ZSPAN_M11,X0_M11,X2_M11,X1_M11
2023-12-31 18:00:00,SystemResetWarning,0830.8,5.00,000.00,021.6,021.0,000.0,029.7,023.1,14.4,0000.0,0009.29,0004.25,0003.83
2023-12-31 18:01:00,SystemResetWarning,0830.9,5.00,000.00,021.6,021.0,000.0,029.7,023.1,14.5,0000.0,0009.11,0004.26,0003.83
2023-12-31 18:02:00,SystemResetWarning,0830.9,5.00,000.00,021.6,021.0,000.0,029.8,023.2,14.5,0000.0,0009.31,0004.25,0003.83
2023-12-31 18:03:00,SystemResetWarning,0830.9,5.00,000.00,021.6,021.0,000.0,029.8,023.2,14.3,0000.0,0008.91,0004.22,0003.84
2023-12-31 18:04:00,SystemResetWarning,0830.9,5.00,000.00,021.7,021.0,000.0,029.8,023.2,14.3,0000.0,0008.16,0004.20,0003.84
2023-12-31 18:05:00,SystemResetWarning,0830.9,5.00,000.00,021.7,021.1,000.0,029.8,023.2,14.3,0000.0,0007.72,0004.16,0003.86
2023-12-31 18:06:00,SystemResetWarning,0830.9,5.00,000.00,021.7,021.1,000.0,029.8,023.2,14.3,0000.0,0007.78,0004.19,0003.87
2023-12-31 18:07:00,SystemResetWarning,0830.9,5.00,000.00,021.7,021.1,000.0,029.8,023.3,14.3,0000.0,0007.64,0004.20,0003.89
2023-12-31 18:08:00,SystemResetWarning,0830.9,5.01,000.00,021.7,021.1,000.0,029.9,023.3,14.4,0000.0,0007.72,0004.23,0003.91
2023-12-31 18:09:00,SystemResetWarning,0830.9,5.01,000.00,021.8,021.1,000.0,029.9,023.3,14.2,0000.0,0007.85,0004.25,0003.94
2023-12-31 18:10:00,SystemResetWarning,0830.9,5.00,000.00,021.8,021.2,000.0,029.9,023.3,14.1,0000.0,0007.99,0004.28,0003.95
2023-12-31 18:11:00,SystemResetWarning,0830.9,5.01,000.00,021.8,021.2,000.0,029.9,023.4,14.1,0000.0,0008.87,0004.30,0003.96
2023-12-31 18:12:00,SystemResetWarning,0830.9,5.01,000.00,021.8,021.2,000.0,029.9,023.4,14.1,0000.0,0009.15,0004.31,0003.97
2023-12-31 18:13:00,SystemResetWarning,0830.9,5.00,000.00,021.8,021.2,000.0,030.0,023.4,14.2,0000.0,0009.31,0004.32,0003.98
2023-12-31 18:14:00,SystemResetWarning,0830.9,5.01,000.00,021.9,021.3,000.0,030.0,023.4,14.3,0000.0,0009.09,0004.33,0003.99
2023-12-31 18:15:00,SystemResetWarning,0830.9,5.00,000.00,021.9,021.3,000.0,030.0,023.4,14.2,0000.0,0009.10,0004.35,0003.99
2023-12-31 18:16:00,SystemResetWarning,0830.9,5.00,000.00,021.9,021.3,000.0,030.0,023.4,14.2,0000.0,0009.12,0004.35,0003.99
2023-12-31 18:17:00,SystemResetWarning,0830.9,4.99,000.00,021.9,021.3,000.0,030.0,023.4,14.3,0000.0,0009.18,0004.36,0003.99
2023-12-31 18:18:00,SystemResetWarning,0830.9,5.00,000.00,021.9,021.3,000.0,030.0,023.4,14.4,0000.0,0009.24,0004.37,0003.98
2023-12-31 18:19:00,SystemResetWarning,0830.9,4.99,000.00,021.9,021.4,000.0,030.1,023.4,14.5,0000.0,0009.25,0004.38,0003.97
2023-12-31 18:20:00,SystemResetWarning,0830.9,5.00,000.00,021.9,021.4,000.0,030.1,023.4,14.5,0000.0,0009.10,0004.36,0003.96
2023-12-31 18:21:00,SystemResetWarning,0830.8,5.00,000.00,021.9,021.4,000.0,030.1,023.4,14.4,0000.0,0009.11,0004.35,0003.95
2023-12-31 18:22:00,SystemResetWarning,0830.8,5.01,000.00,022.0,021.4,000.0,030.1,023.5,14.2,0000.0,0008.23,0004.36,0003.94
2023-12-31 18:23:00,SystemResetWarning,0830.9,5.01,000.00,022.0,021.4,000.0,030.1,023.5,14.3,0000.0,0007.93,0004.37,0003.95
2023-12-31 18:24:00,SystemResetWarning,0830.8,5.01,000.00,022.0,021.4,000.0,030.1,023.5,14.5,0000.0,0008.40,0004.40,0003.95
2023-12-31 18:25:00,SystemResetWarning,0830.8,5.00,000.00,022.0,021.4,000.0,030.2,023.5,14.6,0000.0,0008.20,0004.43,0003.95
2023-12-31 18:26:00,SystemResetWarning,0830.8,5.00,000.00,022.0,021.4,000.0,030.2,023.5,14.7,0000.0,0008.31,0004.46,0003.95
2023-12-31 18:27:00,SystemResetWarning,0830.8,5.00,000.00,022.0,021.5,000.0,030.2,023.6,14.6,0000.0,0008.28,0004.47,0003.95
2023-12-31 18:28:00,SystemResetWarning,0830.8,5.00,000.00,022.1,021.5,000.0,030.2,023.5,14.4,0000.0,0008.93,0004.48,0003.97
2023-12-31 18:29:00,SystemResetWarning,0830.8,5.00,000.00,022.1,021.5,000.0,030.2,023.6,14.5,0000.0,0009.29,0004.47,0003.99
2023-12-31 18:30:00,SystemResetWarning,0830.8,5.00,000.00,022.1,021.5,000.0,030.2,023.6,14.4,0000.0,0009.55,0004.48,0004.01
2023-12-31 18:31:00,SystemResetWarning,0830.8,5.00,000.00,022.1,021.5,000.0,030.2,023.6,14.4,0000.0,0009.95,0004.48,0004.02
2023-12-31 18:32:00,SystemResetWarning,0830.8,4.99,000.00,022.1,021.5,000.0,030.3,023.6,14.4,0000.0,0010.07,0004.49,0004.04
2023-12-31 18:33:00,SystemResetWarning,0830.8,5.00,000.00,022.1,021.5,000.0,030.3,023.7,14.3,0000.0,0010.20,0004.47,0004.05
2023-12-31 18:34:00,SystemResetWarning,0830.8,5.00,000.00,022.1,021.5,000.0,030.3,023.7,14.3,0000.0,0010.25,0004.49,0004.05
2023-12-31 18:35:00,SystemResetWarning,0830.8,5.00,000.00,022.2,021.6,000.0,030.3,023.7,14.3,0000.0,0009.56,0004.50,0004.08
2023-12-31 18:36:00,SystemResetWarning,0830.8,5.00,000.00,022.2,021.6,000.0,030.3,023.7,14.3,0000.0,0009.56,0004.52,0004.09
2023-12-31 18:37:00,SystemResetWarning,0830.8,5.00,000.00,022.2,021.6,000.0,030.3,023.7,14.3,0000.0,0009.77,0004.54,0004.11
2023-12-31 18:38:00,SystemResetWarning,0830.8,5.01,000.00,022.2,021.6,000.0,030.4,023.7,14.3,0000.0,0010.12,0004.59,0004.14
2023-12-31 18:39:00,SystemResetWarning,0830.8,5.00,000.00,022.2,021.6,000.0,030.4,023.8,14.3,0000.0,0010.20,0004.63,0004.15
2023-12-31 18:40:00,SystemResetWarning,0830.8,5.00,000.00,022.2,021.6,000.0,030.4,023.8,14.3,0000.0,0009.81,0004.63,0004.16
2023-12-31 18:41:00,SystemResetWarning,0830.8,5.00,000.00,022.2,021.6,000.0,030.4,023.8,14.3,0000.0,0010.21,0004.64,0004.17
2023-12-31 18:42:00,SystemResetWarning,0830.8,5.00,000.00,022.3,021.7,000.0,030.4,023.8,14.4,0000.0,0010.27,0004.68,0004.19
2023-12-31 18:43:00,SystemResetWarning,0830.8,5.00,000.00,022.3,021.7,000.0,030.4,023.8,14.2,0000.0,0010.14,0004.69,0004.21
2023-12-31 18:44:00,SystemResetWarning,0830.8,5.00,000.00,022.3,021.7,000.0,030.5,023.9,14.3,0000.0,0009.92,0004.71,0004.24
2023-12-31 18:45:00,SystemResetWarning,0830.8,5.00,000.00,022.3,021.7,000.0,030.5,023.9,14.2,0000.0,0010.01,0004.71,0004.26
2023-12-31 18:46:00,SystemResetWarning,0830.8,5.00,000.00,022.4,021.7,000.0,030.5,023.9,14.2,0000.0,0009.96,0004.70,0004.26
2023-12-31 18:47:00,SystemResetWarning,0830.8,5.01,000.00,022.4,021.8,000.0,030.5,023.9,14.0,0000.0,0010.36,0004.73,0004.27
2023-12-31 18:48:00,SystemResetWarning,0830.8,5.01,000.00,022.4,021.8,000.0,030.5,023.9,14.0,0000.0,0010.49,0004.75,0004.29
2023-12-31 18:49:00,SystemResetWarning,0830.7,5.00,000.00,022.4,021.8,000.0,030.5,024.0,14.0,0000.0,0010.21,0004.75,0004.30
2023-12-31 18:50:00,SystemResetWarning,0830.7,5.00,000.00,022.4,021.8,000.0,030.6,024.0,13.9,0000.0,0010.48,0004.76,0004.31
2023-12-31 18:51:00,SystemResetWarning,0830.7,5.00,000.00,022.4,021.8,000.0,030.6,024.0,13.9,0000.0,0010.47,0004.80,0004.33
2023-12-31 18:52:00,SystemResetWarning,0830.7,5.00,000.00,022.5,021.8,000.0,030.6,024.0,13.9,0000.0,0010.72,0004.82,0004.33
2023-12-31 18:53:00,SystemResetWarning,0830.7,5.00,000.00,022.5,021.9,000.0,030.6,024.0,13.9,0000.0,0010.07,0004.82,0004.34
2023-12-31 18:54:00,SystemResetWarning,0830.7,5.00,000.00,022.5,021.9,000.0,030.6,024.0,13.9,0000.0,0010.06,0004.83,0004.33
2023-12-31 18:55:00,SystemResetWarning,0830.7,5.00,000.00,022.5,021.9,000.0,030.6,024.1,13.9,0000.0,0010.09,0004.86,0004.33
2023-12-31 18:56:00,SystemResetWarning,0830.6,5.00,000.00,022.5,021.9,000.0,030.7,024.1,13.9,0000.0,0010.04,0004.88,0004.33
2023-12-31 18:57:00,SystemResetWarning,0830.6,5.00,000.00,022.6,021.9,000.0,030.7,024.1,13.9,0000.0,0010.06,0004.89,0004.35
2023-12-31 18:58:00,SystemResetWarning,0830.5,5.00,000.00,022.6,022.0,000.0,030.7,024.1,13.9,0000.0,0010.31,0004.88,0004.35
2023-12-31 18:59:00,SystemResetWarning,0830.6,5.00,000.00,022.6,022.0,000.0,030.7,024.1,13.9,0000.0,0010.24,0004.85,0004.36
